PGWTRJOA

Guest
Details From PGWT - Tinian Intl
To RJOA - Hiroshima
Flight Number -
Tags Generated
Created
Modified
Stats Distance 1,355 nm / 2,509 km
Max Altitude 0 ft / 0 m
Waypoints 3
Social Downloads 1
Likes 0
Share VATSIM

Download

Looking for another format? Having issues loading an existing format? Contact us
Advertisement - Login to hide

Notes

Generated

Route

PGWT NEU10 RJOA

ID Type Via Altitude Latitude Longitude Leg Dist Tot Dist Heading (true) Name
O PGWT APT - 0 ft / 0 m 14.99695˚ 145.60739˚ - 0 nm - -
NEU10 FIX - 0 ft / 0 m 34.08508˚ 133.13392˚ 1330 nm 1330 nm 332° / 326° -
O RJOA APT - 0 ft / 0 m 34.43603˚ 132.90312˚ 23 nm 1354 nm 332° / 331° -

Altitude Profile

Advertisement - Login to hide

Weather


0- 5 10 15 20 25 30 35+ Temperature / ° C

Clouds and Precipitation
Forecast for 2018-05-26 06:00 UTC. Updated 6 hours ago

Ground ~20,000 ft ~40,000 ft Winds

PGWT

Details ICAO PGWT (TIQ)
Name TINIAN INTL
Region USA (Guam, Northern Mariana Islands)
Timezone Pacific/Saipan (UTC+10.0)
Stats Elevation 271 ft / 83 m (AMSL)
Location 14.999200° 145.619346°
Runways 1
Magnetic Variation 0.488° E

METAR

PGWT 260950Z 09005KT 7SM SCT015 27/25 A2987 RMK LAST

Decode

TAF

TAF TAF PGWT 260520Z 2606/2706 10012KT P6SM FEW018 SCT050 FM260800 10009KT P6SM FEW020 SCT050

Decode

Departure Runways

ID Width Length Bearing (true) Bearing (mag) Surface Threshold Offset Overrun Length
08 150 ft / 46 m 8,590 ft / 2,618 m 78.98° 78.49° Asphalt 0 ft / 0 m 0 ft / 0 m
26 150 ft / 46 m 8,590 ft / 2,618 m 258.98° 258.49° Asphalt 0 ft / 0 m 0 ft / 0 m

RJOA

Details ICAO RJOA (HIJ)
Name HIROSHIMA
Region Japan
Timezone Asia/Tokyo (UTC+9.0)
Stats Elevation 1,088 ft / 332 m (AMSL)
Location 34.436025° 132.919444°
Runways 1
Magnetic Variation 7.728° W

METAR

RJOA 261000Z 14003KT CAVOK 20/13 Q1009

Decode

TAF

TAF RJOA 260505Z 2606/2712 22004KT 9999 FEW030

Decode

Destination Runways

ID Width Length Bearing (true) Bearing (mag) Surface Threshold Offset Overrun Length
10 200 ft / 61 m 9,823 ft / 2,994 m 89.99° 97.72° Asphalt 0 ft / 0 m 210 ft / 64 m
28 200 ft / 61 m 9,823 ft / 2,994 m 270.01° 277.74° Asphalt 0 ft / 0 m 210 ft / 64 m

Approach Navaids

Runway Type Ident Frequency Range Bearing (true) Bearing (mag) Slope Elevation
10 Localiser IHG 108.70 MHz 18 nm / 33 km 90.00° 97.73° - 1,094 ft / 333 m (AMSL)
10 Glidescope IHG 108.70 MHz 10 nm / 19 km 90.00° 97.73° 3.00° 1,094 ft / 333 m (AMSL)
10 DME IHG 108.70 MHz 18 nm / 33 km - - - 1,094 ft / 333 m (AMSL)

Popular Alternatives